Home   Weather   Hereford   Past weeks

Flag for USA Past Weather in Hereford, Texas, USA — Yesterday and Last 2 Weeks

Now
37 °F

Low clouds.


Feels Like: 37 °F
Forecast: 34 / 41 °F
Wind: No wind

Location: Clovis Municipal

Current Time: Dec 3, 2016 at 4:07:01 pm

Latest Report: Dec 3, 2016 at 3:35 pm


Visibility: 10 mi

Pressure: 29.98 "Hg (25.95 "Hg at 1167m altitude)

Humidity: 87%

Dew Point: 34 °F

Location of HerefordLocation

Past Weather in Hereford — Graph

°F

Hereford Temperature Yesterday

Maximum temperature yesterday: 45 °F (at 1:55 pm)
Minimum temperature yesterday: 27 °F (at 5:55 am)
Average temperature yesterday: 36 °F

High & Low Weather Summary for the Past Weeks

 TemperatureHumidityPressure
High73 °F (Nov 20, 2:15 pm)94% (Nov 27, 2:55 am)30.57 "Hg (Nov 27, 2:55 am)
Low18 °F (Nov 30, 5:15 am)16% (Nov 27, 3:15 pm)29.46 "Hg (Nov 28, 2:55 pm)
Average42 °F54%30.06 "Hg
* Reported Nov 18 2:15 pm — Dec 3 2:55 pm, Hereford, Weather by CustomWeather, © 2016

Note: Actual official high and low records may vary slightly from our data, if they occured in-between our weather recording intervals... More about our weather records

Advertising

Hereford Weather History for the Previous 24 Hours

Scroll right to see more
 ConditionsComfort  
Time TempWeatherWind HumidityBarometerVisibility
2:55 pm
Sat, Dec 3
37 °FLow clouds.3 mph87%29.99 "Hg10 mi
2:35 pm37 °FLow clouds.5 mph87%30.01 "Hg9 mi
2:15 pm37 °FLow clouds.No wind87%30.02 "Hg10 mi
1:55 pm37 °FLow clouds.3 mph87%30.02 "Hg9 mi
1:35 pm37 °FLow clouds.No wind87%30.03 "Hg5 mi
1:15 pm37 °FLow clouds.6 mph87%30.03 "Hg7 mi
12:55 pm36 °FLow clouds.8 mph93%30.04 "Hg2 mi
12:35 pm36 °FLow clouds.9 mph93%30.06 "Hg3 mi
12:15 pm36 °FLow clouds.8 mph87%30.08 "Hg2 mi
11:55 am34 °FLow clouds.7 mph87%30.10 "Hg2 mi
11:35 am34 °FLow clouds.8 mph87%30.11 "Hg2 mi
11:15 am34 °FLow clouds.9 mph87%30.11 "Hg3 mi
10:55 am34 °FLow clouds.10 mph93%30.11 "Hg2 mi
10:35 am34 °FLow clouds.10 mph87%30.12 "Hg1 mi
10:15 am34 °FLow clouds.10 mph87%30.13 "Hg1 mi
9:55 am34 °FLow clouds.10 mph81%30.14 "Hg1 mi
9:35 am32 °FLow clouds.9 mph93%30.13 "Hg1 mi
9:15 am32 °FLow clouds.12 mph87%30.12 "Hg1 mi
8:55 am32 °FLow clouds.14 mph87%30.11 "Hg2 mi
8:35 am32 °FLow clouds.15 mph87%30.08 "Hg2 mi
8:15 am32 °FLow clouds.13 mph87%30.10 "Hg3 mi
7:55 am32 °FLow clouds.12 mph87%30.09 "Hg5 mi
7:35 am32 °FLow clouds.16 mph87%30.09 "Hg7 mi
7:15 am32 °FLow clouds.15 mph87%30.08 "Hg7 mi
6:55 am32 °FLow clouds.14 mph87%30.08 "Hg10 mi
6:35 am32 °FLow clouds.15 mph87%30.08 "Hg10 mi
6:15 am32 °FLow clouds.14 mph87%30.07 "Hg10 mi
5:55 am32 °FMostly cloudy.15 mph87%30.08 "Hg10 mi
5:35 am32 °FMostly cloudy.17 mph87%30.08 "Hg10 mi
5:15 am32 °FLow clouds.15 mph87%30.08 "Hg10 mi
4:55 am32 °FLow clouds.16 mph87%30.09 "Hg10 mi
4:35 am32 °FMostly cloudy.17 mph87%30.10 "Hg9 mi
4:15 am32 °FMostly cloudy.18 mph87%30.10 "Hg10 mi
3:55 am34 °FMostly cloudy.17 mph87%30.11 "Hg5 mi
3:35 am34 °FLow clouds.15 mph87%30.12 "Hg4 mi
3:15 am34 °FLow clouds.16 mph87%30.11 "Hg5 mi
2:55 am34 °FLow clouds.16 mph87%30.11 "Hg3 mi
1:55 am34 °FMostly cloudy.15 mph87%30.12 "Hg2 mi
1:35 am34 °FMostly cloudy.13 mph87%30.12 "Hg2 mi
1:15 am34 °FMostly cloudy.15 mph87%30.12 "Hg3 mi
12:55 am36 °FLow clouds.15 mph81%30.13 "Hg2 mi
12:35 am36 °FMostly cloudy.12 mph81%30.12 "Hg4 mi
12:15 am36 °FMostly cloudy.17 mph81%30.12 "Hg4 mi
11:55 pm
Fri, Dec 2
36 °FLow clouds.15 mph87%30.12 "Hg3 mi
11:35 pm36 °FLow clouds.16 mph81%30.12 "Hg4 mi
11:15 pm36 °FLow clouds.16 mph87%30.12 "Hg3 mi
10:55 pm36 °FLow clouds.18 mph87%30.11 "Hg3 mi
10:35 pm36 °FMostly cloudy.15 mph81%30.12 "Hg4 mi
10:15 pm36 °FLow clouds.15 mph81%30.13 "Hg4 mi
9:55 pm36 °FMostly cloudy.14 mph87%30.12 "Hg5 mi
9:35 pm37 °FMostly cloudy.14 mph75%30.12 "Hg5 mi
9:15 pm37 °FOvercast.13 mph75%30.12 "Hg10 mi
8:55 pm37 °FOvercast.15 mph75%30.13 "Hg10 mi
8:15 pm37 °FOvercast.14 mph70%30.12 "Hg10 mi
7:55 pm39 °FOvercast.13 mph65%30.12 "Hg10 mi
7:35 pm39 °FOvercast.12 mph65%30.11 "Hg10 mi
7:15 pm39 °FOvercast.10 mph65%30.11 "Hg10 mi
6:55 pm39 °FOvercast.15 mph65%30.10 "Hg10 mi
6:35 pm41 °FOvercast.12 mph61%30.09 "Hg10 mi
6:15 pm39 °FOvercast.9 mph65%30.09 "Hg10 mi
5:55 pm39 °FOvercast.8 mph65%30.08 "Hg10 mi
5:35 pm39 °FOvercast.10 mph65%30.07 "Hg9 mi
5:15 pm43 °FOvercast.12 mph46%30.07 "Hg10 mi
4:55 pm45 °FOvercast.12 mph42%30.07 "Hg10 mi
4:35 pm45 °FOvercast.12 mph42%30.06 "Hg10 mi
4:15 pm43 °FOvercast.15 mph46%30.06 "Hg10 mi
Weather by CustomWeather, © 2016

See weather overviewHow to use our weather pages